Starlink 6321

operational
NORAD ID: 57340 Int'l Des: 2023-099 Owner: SPXS Country: US Constellation: starlink
LEOCIRCULAR

About Starlink 6321

Description loading...

Live Position

Loading 3D Globe...

Upcoming Passes

Altitude History

Altitude vs Time

uPlot chart will show altitude changes over time

Two-Line Element Set

1 57340U 23099N 26033.49594474 -.00000287 00000-0 -62112-5 0 9998
2 57340 43.0046 80.1089 0000831 296.0537 64.0219 15.02533439140820
Epoch: Feb 2, 2026 • Age: 14 hours

Current Status

Altitude 559.1 km
Velocity 7.58 km/s
Sub-Earth Point 0.59°N, 101.27°E
Launch Date Jul 16, 2023
Age 2.5 years
Type internet

Technical Details

Classification Payload
Mass 305.00 kg
Dry Mass 290.00 kg
Total Mass 305.00 kg
Length 0.20 m
Diameter 2.80 m
Span 9.00 m
Shape Box + pan
Manufacturer SPXS
Bus Type Starlink
Phase Status In Orbit
Owner/State SPXS/US

Large Constellations

Loading constellations...